Location: Hebron
(33.0265°N, 96.8636°W)
Time: 02:40:01
(UTC+00:00)

Cosmos 1538 Rocket - Pass Details

Date: 02 July 2022
Orbit: 752 x 791 km, 74.0° (Epoch: 11 August)

Event Time Altitude Azimuth Distance (km) Brightness Sun altitude
Rises 10:34:52 0° 173° (S) 3,237 7.0 -9.4°
Reaches altitude 10° 10:37:26 10° 164° (SSE) 2,307 6.3 -8.9°
Maximum altitude 10:42:07 34° 100° (E) 1,249 5.6 -8.1°
Drops below altitude 10° 10:46:46 10° 37° (NE) 2,297 7.9 -7.3°
Sets 10:49:18 0° 28° (NNE) 3,221 8.5 -6.9°
